Regional Weather Roundup
Issued by NWS Burlington, VT

Home | Current Version | Previous Version | Text Only | Print | Product List | Glossary On
Versions: 1 2 3 4 5 6 7 8 9 10 11 12 13 14 15 16 17 18 19 20 21 22 23 24 25 26 27 28 29 30 31 32 33 34 35 36 37 38 39 40 41 42 43 44 45 46 47 48 49 50
000
ASUS41 KBTV 240710
RWRBTV
VERMONT REGIONAL WEATHER ROUNDUP
NATIONAL WEATHER SERVICE BURLINGTON VT
200 AM EST MON NOV 24 2014

NOTE: "FAIR" INDICATES FEW OR NO CLOUDS BELOW 12,000 FEET WITH NO
SIGNIFICANT WEATHER AND/OR OBSTRUCTIONS TO VISIBILITY.

* THESE REPORTS ARE NOT UNDER NWS QUALITY CONTROL AND/OR DO NOT
  REPORT WEATHER SUCH AS PRECIPITATION AND FOG.

VTZ001>019-240800-
_____VERMONT_____


CITY           SKY/WX    TMP DP  RH WIND       PRES   REMARKS
BURLINGTON     PTSUNNY   50  38  63 SE5       29.88F
MONTPELIER     PTSUNNY   43  31  62 SW5       29.98F
ST. JOHNSBURY*   N/A     34  32  92 MISG      29.97F
LYNDONVILLE*   FAIR      40  38  92 S5        29.98S
MIDDLEBURY*    FAIR      45  38  78 S5        29.89F
RUTLAND*       CLOUDY    46  32  57 E16G22    29.92F
SPRINGFIELD    CLOUDY    33  32  96 CALM      30.00F FOG
HIGHGATE*      FAIR      44  39  82 CALM      29.85F
NEWPORT*       FAIR      44  37  77 S9        29.93F
BENNINGTON     PTSUNNY   53  42  66 S16G30    29.91F

_____LAKE CHAMPLAIN_____


CITY           SKY/WX    TMP DP  RH WIND       PRES   REMARKS
COLCHESTER RF*   N/A     48  39  71 S31         N/A
DIAMOND ISL*     N/A     46  37  71 S17         N/A

$$

NYZ007-026>031-035-052-083-240800-
_____NORTHERN NEW YORK_____


CITY           SKY/WX    TMP DP  RH WIND       PRES   REMARKS
PLATTSBURGH    CLOUDY    48  34  58 S12       29.84F
SARANAC LAKE   CLOUDY    48  37  65 S10       29.78F
MASSENA        CLOUDY    44  39  82 E6        29.74F
OGDENSBURG*    SUNNY     46  39  76 SE3       29.68F
POTSDAM*       SUNNY     54  43  66 S7        29.71F
WATERTOWN      CLOUDY    57  40  52 S17G35    29.63F
FT DRUM        CLOUDY    47  36  65 SE17      29.65F
ALBANY         CLOUDY    51  35  54 S12       29.90F
GLENS FALLS    CLOUDY    35  31  85 CALM      29.91F

$$
NHZ002-005-011-240800-
_____NEW HAMPSHIRE_____


CITY           SKY/WX    TMP DP  RH WIND       PRES   REMARKS
LEBANON        CLOUDY    36  34  92 CALM      29.97F
KEENE          CLOUDY    32  30  93 CALM      30.02F
MT WASHINGTON  MOSUNNY   32  25  74 SW36        N/A
PLYMOUTH       FAIR      32  32 100 CALM      30.04S FOG
WHITEFIELD     SUNNY     33  31  92 CALM      29.97F

$$

_____REGIONAL QUEBEC LOCATIONS_____


CITY           SKY/WX    TMP DP  RH WIND       PRES   REMARKS
MONTREAL       CLOUDY    46  37  71 SE14      29.80F
QUEBEC CITY    FOG       36  34  93 NE7       29.96F VSB 1
SHERBROOKE     CLOUDY    41  39  93 E5        29.93F

_____REGIONAL ONTARIO LOCATIONS_____


CITY           SKY/WX    TMP DP  RH WIND       PRES   REMARKS
OTTAWA         CLOUDY    43  39  87 E10       29.70F

______KEY______
VSB  - VISIBILITY IN MILES
WCI  - WIND CHILL INDEX
HX   - HEAT INDEX
$$
NNNN



USA.gov is the U.S. government's official web portal to all federal, state and local government web resources and services.